User: anonymous   Login
Location: Ariel
(45.9570°N, 122.5700°W)
Time: 23:36:23
(UTC-07:00)
Language:

Altair - Orbit

View from above orbital plane
View from above orbital plane
View from above satellite
View from above satellite

Ground track
Ground track

The orbit data is extracted from the following two-line orbital elements,

1    50U 60009B   19198.09008507 -.00000100  00000-0 -13251-3 0  9995
2    50  47.2323  85.2260 0113954  43.0638 317.9001 12.20109333629617
Epoch (UTC): 17 July 2019 02:09:43
Eccentricity: 0.0113954
inclination: 47.2323°
perigee height: 1501 km
apogee height: 1683 km
right ascension of ascending node: 85.2260°
argument of perigee: 43.0638°
revolutions per day: 12.20109333
mean anomaly at epoch: 317.9001°
orbit number at epoch: 62961

The dashed part of the orbit path shows where the satellite is in the earth's shadow,  

DLR